#timestamp,LO_Frequency,Hit,StdDev 
1529402415.5,286047001.9,N
1529402435.3,286047002.2,N
1529402455.1,286047002.6,N
1529402475.9,286047004.4,N
1529402495.7,286046999.8,N
1529402515.6,286047001.5,N
1529402535.4,286047001.6,N
1529402555.2,286047004.1,N
1529402575.1,286047003.3,N
1529402576.0,286047003.3,N
1529402595.8,286047005.6,Y
1529402615.7,286047001.8,P
1529402635.5,286047001.7,P
1529402655.3,286047001.9,P
1529402675.2,286047002.4,Y
1529402695.0,286047000.3,P
1529402695.9,286047000.3,N
1529402715.8,286047000.9,N
1529402735.6,286047000.4,N
1529402755.4,286047000.6,N
1529402775.3,286046998.1,Y
1529402795.1,286046998.8,P
1529402815.8,286046999.1,N
1529402835.7,286046997.7,N
1529402855.5,286046997.6,N
1529402875.4,286046997.9,N
1529402895.2,286046997.4,N
1529402915.0,286046999.5,N
1529402915.9,286046999.5,N
1529402935.8,286046998.8,N
1529402955.6,286046998.8,N
1529402975.4,286047000.3,N
1529402995.3,286047001.2,N
1529403015.1,286047000.7,N
1529403035.9,286046998.1,N
1529403055.7,286046998.1,N
1529403075.5,286046998.2,N
1529403095.4,286046998.8,N
1529403115.2,286046996.9,N
1529403135.0,286046997.7,N
1529403135.9,286046997.7,N
1529403155.8,286046997.2,N
1529403175.6,286046995.4,Y
1529403195.5,286046998.1,P
1529403215.3,286047000.9,P
1529403235.1,286046998.4,N
1529403255.9,286046998.5,N
1529403275.7,286047000.9,N
1529403295.5,286046999.8,N
1529403315.4,286046998.3,N
1529403335.2,286047000.7,N
1529403355.1,286046999.8,N
1529403356.0,286046999.8,N
1529403375.8,286047002.1,N
1529403395.6,286047001.4,N
1529403415.5,286047002.0,N
1529403435.3,286047002.8,N
1529403455.1,286047000.1,N
1529403475.9,286046999.8,N
1529403495.7,286046999.9,N
1529403515.5,286047001.0,N
1529403535.4,286047000.1,N
1529403555.2,286046998.9,N
1529403575.1,286046999.0,N
1529403576.0,286046999.0,N
1529403595.8,286047000.3,N
1529403615.6,286047001.0,N
1529403635.5,286047000.4,N
1529403655.3,286047000.4,N
1529403675.1,286047002.8,N
1529403695.9,286047002.8,N
1529403715.7,286047002.3,N
1529403735.6,286047001.9,N
1529403755.4,286047002.3,N
1529403775.2,286047002.4,N
1529403795.1,286046999.9,N
1529403796.0,286046999.9,N
1529403815.8,286046998.2,N
1529403835.6,286046998.6,N
1529403855.5,286046999.0,N
1529403875.3,286047000.7,N
1529403895.2,286046999.6,N
1529403915.9,286046996.7,N
1529403935.7,286046996.8,N
1529403955.6,286046999.5,N
1529403975.4,286046998.3,N
1529403995.3,286047001.0,N
1529404015.1,286046999.0,N
1529404016.0,286046999.0,N
1529404035.8,286046999.5,N
1529404055.7,286046998.1,N
1529404075.5,286047000.9,N
1529404095.4,286047001.0,N
1529404115.2,286046998.6,N
1529404135.0,286047001.2,N
1529404135.9,286047001.2,N
1529404155.8,286047000.4,N
1529404175.6,286047000.9,N
1529404195.4,286046998.6,N
1529404215.3,286046999.5,N
1529404235.1,286046997.0,N
1529404255.9,286046997.0,N
1529404275.7,286046999.1,N
1529404295.5,286046998.5,N
1529404315.4,286047000.8,N
1529404335.2,286047000.7,N
1529404355.0,286047000.3,N
1529404355.9,286047000.3,N
1529404375.8,286047002.6,N
1529404395.6,286046999.8,N
1529404415.4,286047002.5,N
1529404435.3,286047001.0,N
1529404455.1,286047001.0,N
1529404475.9,286047000.1,N
1529404495.7,286047002.0,N
1529404515.5,286047002.3,N
1529404535.4,286047000.3,N
1529404555.2,286046999.8,N
1529404575.0,286047000.0,N
1529404576.0,286047000.0,N
1529404595.8,286047000.0,N
1529404615.6,286047000.3,N
1529404635.5,286047000.3,N
1529404655.3,286047001.7,N
1529404675.1,286046999.9,N
1529404695.9,286047000.4,N
1529404715.7,286047000.5,N
1529404735.5,286047000.7,N
1529404755.4,286046999.3,N
1529404775.2,286047001.1,N
1529404795.1,286046998.7,N
1529404796.0,286046998.7,N
1529404815.8,286046998.3,N
1529404835.6,286047000.6,N
1529404855.5,286047002.8,N
1529404875.3,286047001.8,N
1529404895.2,286047003.6,Y
1529404915.9,286047001.3,P
1529404935.7,286047002.3,P
1529404955.6,286047001.6,N
1529404975.4,286047004.4,Y
1529404995.2,286047002.3,P
1529405015.1,286047002.3,P
1529405016.0,286047002.3,P
1529405035.8,286046999.7,N
1529405055.7,286047001.0,N
1529405075.5,286046999.1,N
1529405095.3,286046999.1,N
1529405115.2,286046999.4,N
1529405135.0,286046998.6,N
1529405135.9,286046998.6,N
1529405155.7,286046998.1,N
1529405175.6,286047001.0,N
1529405195.4,286047001.1,N
1529405215.3,286047001.1,N
1529405235.1,286047000.5,N
1529405236.0,286047000.5,N
1529405255.8,286046999.0,N
1529405275.7,286046998.6,N
1529405295.5,286046998.7,N
1529405315.4,286046999.0,N
1529405335.2,286046999.2,N
1529405355.0,286046997.6,N
1529405355.9,286046997.6,N
1529405375.8,286046994.9,Y
1529405395.6,286046999.2,P
1529405415.5,286047001.2,P
1529405435.3,286046998.7,N
1529405455.1,286046998.3,N
1529405475.9,286047001.0,N
1529405495.7,286047001.0,N
1529405515.5,286047002.8,N
1529405535.4,286046999.9,N
1529405555.2,286046998.6,N
1529405575.1,286046998.2,N
1529405576.0,286046998.2,N
1529405595.8,286046998.9,N
1529405615.6,286046998.4,N
1529405635.5,286046999.1,N
1529405655.3,286046997.0,N
1529405675.1,286046999.0,N
1529405695.9,286046998.7,N
1529405715.7,286046999.5,N
1529405735.6,286046998.9,N
1529405755.4,286046998.4,N
1529405775.2,286047001.1,N
1529405795.1,286047000.7,N
1529405796.0,286047000.7,N
1529405815.8,286047001.2,N
1529405835.7,286047000.3,N
1529405855.5,286046999.7,N
1529405875.3,286047002.0,N
1529405895.2,286047001.9,N
1529405915.0,286047002.2,N
1529405915.9,286047002.2,N
1529405935.8,286047002.3,N
1529405955.6,286046998.5,N
1529405975.4,286047001.1,N
1529405995.3,286047000.3,N
